TimeEDT,TemperatureF,Dew PointF,Humidity,Sea Level PressureIn,VisibilityMPH,Wind Direction,Wind SpeedMPH,Gust SpeedMPH,PrecipitationIn,Events,Conditions,WindDirDegrees,DateUTC
12:15 AM,62.6,61.3,96,30.03,10.0,Calm,Calm,-,N/A,,Clear,0,2013-09-04 04:15:00
12:35 AM,63.0,61.5,95,30.04,10.0,Calm,Calm,-,N/A,,Clear,0,2013-09-04 04:35:00
12:55 AM,62.6,61.2,95,30.04,10.0,Calm,Calm,-,N/A,,Clear,0,2013-09-04 04:55:00
1:15 AM,62.4,61.3,96,30.04,7.0,Calm,Calm,-,N/A,,Clear,0,2013-09-04 05:15:00
1:35 AM,61.0,59.9,96,30.04,5.0,Calm,Calm,-,N/A,,Clear,0,2013-09-04 05:35:00
1:55 AM,60.8,59.9,97,30.04,5.0,Calm,Calm,-,N/A,,Clear,0,2013-09-04 05:55:00
2:15 AM,59.9,59.0,97,30.04,2.5,Calm,Calm,-,N/A,,Clear,0,2013-09-04 06:15:00
2:35 AM,59.7,58.8,97,30.04,7.0,Calm,Calm,-,N/A,,Clear,0,2013-09-04 06:35:00
2:55 AM,59.0,58.1,97,30.04,4.0,Calm,Calm,-,N/A,,Clear,0,2013-09-04 06:55:00
3:15 AM,58.8,57.9,97,30.04,4.0,Calm,Calm,-,N/A,,Clear,0,2013-09-04 07:15:00
3:35 AM,58.5,57.7,97,30.04,3.0,Calm,Calm,-,N/A,,Clear,0,2013-09-04 07:35:00
3:55 AM,58.8,58.3,98,30.05,5.0,Calm,Calm,-,N/A,,Clear,0,2013-09-04 07:55:00
4:15 AM,57.6,56.8,97,30.06,3.0,Calm,Calm,-,N/A,,Clear,0,2013-09-04 08:15:00
4:35 AM,57.4,56.7,97,30.06,4.0,Calm,Calm,-,N/A,,Clear,0,2013-09-04 08:35:00
4:55 AM,57.2,56.5,97,30.07,2.5,Calm,Calm,-,N/A,,Clear,0,2013-09-04 08:55:00
5:15 AM,57.4,56.5,97,30.07,7.0,Calm,Calm,-,N/A,,Clear,0,2013-09-04 09:15:00
5:35 AM,58.1,57.6,98,30.08,5.0,Calm,Calm,-,N/A,,Clear,0,2013-09-04 09:35:00
5:55 AM,59.2,58.1,96,30.09,10.0,Calm,Calm,-,N/A,,Clear,0,2013-09-04 09:55:00
6:15 AM,59.0,57.7,96,30.09,10.0,Calm,Calm,-,N/A,,Clear,0,2013-09-04 10:15:00
6:35 AM,58.8,57.4,95,30.10,10.0,NNW,3.5,-,N/A,,Clear,340,2013-09-04 10:35:00
6:55 AM,57.7,56.7,96,30.11,10.0,North,3.5,-,N/A,,Clear,350,2013-09-04 10:55:00
7:15 AM,57.6,56.5,96,30.12,5.0,Calm,Calm,-,N/A,,Clear,0,2013-09-04 11:15:00
7:35 AM,58.3,57.6,97,30.13,5.0,Calm,Calm,-,N/A,,Clear,0,2013-09-04 11:35:00
7:55 AM,60.4,59.5,97,30.14,7.0,Calm,Calm,-,N/A,,Clear,0,2013-09-04 11:55:00
8:15 AM,62.6,60.8,94,30.14,10.0,Calm,Calm,-,N/A,,Clear,0,2013-09-04 12:15:00
8:35 AM,65.1,61.3,88,30.14,10.0,North,3.5,-,N/A,,Clear,360,2013-09-04 12:35:00
8:55 AM,67.3,61.5,82,30.15,10.0,North,4.6,-,N/A,,Clear,360,2013-09-04 12:55:00
9:15 AM,69.6,61.5,75,30.15,10.0,Calm,Calm,-,N/A,,Clear,0,2013-09-04 13:15:00
9:35 AM,71.2,60.8,69,30.15,10.0,Calm,Calm,-,N/A,,Clear,0,2013-09-04 13:35:00
9:55 AM,72.9,60.6,65,30.16,10.0,Calm,Calm,-,N/A,,Clear,0,2013-09-04 13:55:00
10:15 AM,73.4,61.0,65,30.16,10.0,North,3.5,-,N/A,,Clear,10,2013-09-04 14:15:00
10:35 AM,74.8,61.0,62,30.16,10.0,NE,3.5,-,N/A,,Clear,50,2013-09-04 14:35:00
10:55 AM,76.3,60.8,59,30.16,10.0,Calm,Calm,-,N/A,,Clear,0,2013-09-04 14:55:00
11:15 AM,76.6,61.2,59,30.16,10.0,ENE,3.5,-,N/A,,Clear,60,2013-09-04 15:15:00
11:35 AM,77.5,61.0,57,30.16,10.0,Calm,Calm,-,N/A,,Scattered Clouds,0,2013-09-04 15:35:00
11:55 AM,78.1,59.2,52,30.16,10.0,Calm,Calm,-,N/A,,Scattered Clouds,0,2013-09-04 15:55:00
12:15 PM,80.1,60.6,51,30.15,10.0,ENE,4.6,-,N/A,,Clear,60,2013-09-04 16:15:00
12:35 PM,79.7,60.8,52,30.15,10.0,Calm,Calm,-,N/A,,Clear,0,2013-09-04 16:35:00
12:55 PM,81.0,60.4,50,30.15,10.0,Calm,Calm,-,N/A,,Clear,0,2013-09-04 16:55:00
1:15 PM,80.4,61.2,52,30.15,10.0,East,4.6,-,N/A,,Clear,100,2013-09-04 17:15:00
1:35 PM,81.9,61.2,49,30.14,10.0,ESE,5.8,-,N/A,,Scattered Clouds,110,2013-09-04 17:35:00
1:55 PM,82.0,61.2,49,30.14,10.0,Calm,Calm,-,N/A,,Scattered Clouds,0,2013-09-04 17:55:00
2:15 PM,82.4,61.0,48,30.13,10.0,South,3.5,-,N/A,,Scattered Clouds,180,2013-09-04 18:15:00
2:35 PM,82.9,59.5,45,30.13,10.0,Calm,Calm,-,N/A,,Scattered Clouds,0,2013-09-04 18:35:00
2:55 PM,83.7,59.5,44,30.13,10.0,Calm,Calm,-,N/A,,Clear,0,2013-09-04 18:55:00
3:15 PM,83.7,59.0,43,30.12,10.0,Calm,Calm,-,N/A,,Clear,0,2013-09-04 19:15:00
3:35 PM,84.4,59.7,43,30.12,10.0,Calm,Calm,-,N/A,,Clear,0,2013-09-04 19:35:00
3:55 PM,85.1,58.6,41,30.11,10.0,Calm,Calm,-,N/A,,Clear,0,2013-09-04 19:55:00
4:15 PM,84.9,58.5,41,30.10,10.0,Calm,Calm,-,N/A,,Clear,0,2013-09-04 20:15:00
4:35 PM,84.7,59.0,42,30.10,10.0,Calm,Calm,-,N/A,,Clear,0,2013-09-04 20:35:00
4:55 PM,84.6,59.4,42,30.10,10.0,Calm,Calm,-,N/A,,Clear,0,2013-09-04 20:55:00
5:15 PM,84.2,62.1,47,30.10,10.0,Calm,Calm,-,N/A,,Clear,0,2013-09-04 21:15:00
5:35 PM,83.8,60.6,45,30.09,10.0,South,3.5,-,N/A,,Clear,170,2013-09-04 21:35:00
5:55 PM,83.3,62.1,49,30.09,10.0,Calm,Calm,-,N/A,,Clear,0,2013-09-04 21:55:00
6:15 PM,82.2,64.8,55,30.09,10.0,Calm,Calm,-,N/A,,Clear,0,2013-09-04 22:15:00
6:35 PM,81.0,67.6,64,30.09,10.0,Calm,Calm,-,N/A,,Clear,0,2013-09-04 22:35:00
6:55 PM,77.2,68.4,74,30.09,10.0,Calm,Calm,-,N/A,,Clear,0,2013-09-04 22:55:00
7:15 PM,73.2,67.3,82,30.09,10.0,Calm,Calm,-,N/A,,Clear,0,2013-09-04 23:15:00
7:35 PM,70.7,67.1,88,30.10,10.0,Calm,Calm,-,N/A,,Clear,0,2013-09-04 23:35:00
7:55 PM,68.7,65.7,90,30.10,10.0,Calm,Calm,-,N/A,,Clear,0,2013-09-04 23:55:00
8:15 PM,67.5,64.6,90,30.10,10.0,Calm,Calm,-,N/A,,Clear,0,2013-09-05 00:15:00
8:35 PM,66.2,64.6,94,30.11,10.0,Calm,Calm,-,N/A,,Clear,0,2013-09-05 00:35:00
8:55 PM,65.7,63.9,94,30.12,10.0,Calm,Calm,-,N/A,,Clear,0,2013-09-05 00:55:00
9:15 PM,64.9,62.8,93,30.13,7.0,Calm,Calm,-,N/A,,Clear,0,2013-09-05 01:15:00
9:35 PM,64.2,62.8,95,30.13,5.0,Calm,Calm,-,N/A,,Clear,0,2013-09-05 01:35:00
9:55 PM,63.7,62.2,95,30.14,7.0,Calm,Calm,-,N/A,,Clear,0,2013-09-05 01:55:00
10:15 PM,64.0,62.6,95,30.14,5.0,Calm,Calm,-,N/A,,Clear,0,2013-09-05 02:15:00
10:35 PM,63.5,62.2,96,30.14,5.0,Calm,Calm,-,N/A,,Clear,0,2013-09-05 02:35:00
10:55 PM,63.0,61.9,96,30.15,5.0,Calm,Calm,-,N/A,,Clear,0,2013-09-05 02:55:00
11:15 PM,63.0,61.7,96,30.15,4.0,Calm,Calm,-,N/A,,Clear,0,2013-09-05 03:15:00
11:35 PM,61.9,60.8,96,30.15,5.0,Calm,Calm,-,N/A,,Clear,0,2013-09-05 03:35:00
11:55 PM,61.3,60.3,96,30.16,3.0,Calm,Calm,-,N/A,,Clear,0,2013-09-05 03:55:00